GFSGBSN_850_dewp_084.txt.gz
Dewpoint
10 10 7 4 0 -0 0 -4 -12 -14 -14 -12 -13 -16 -18 -19 -20 -23 -25 -27 -28 -29 -30 -31 -32 -30 -25 -0 -2 -4 -8 -15 -12 -9 -1 -3 -7 -10 -10 -12 -11 -10 -11 -10 -9 -9 -9
10 10 9 8 4 1 -1 -5 -10 -10 -7 -10 -11 -12 -13 -18 -21 -23 -25 -27 -28 -29 -30 -30 -29 -25 -12 -3 -8 -8 -9 -8 -5 -2 -3 -5 -6 -7 -9 -9 -9 -11 -11 -11 -12 -11 -11
10 10 9 7 4 2 0 -4 -6 -6 -4 -6 -7 -11 -12 -19 -21 -24 -27 -30 -30 -30 -30 -28 -25 -15 1 -5 -8 -7 -8 -10 -11 -8 -4 -5 -6 -5 -5 -6 -7 -7 -6 -7 -8 -9 -9
10 9 6 5 4 2 1 -1 -3 -3 -3 -3 -5 -11 -14 -18 -24 -27 -30 -31 -32 -31 -30 -21 -11 -3 -0 -6 -5 -7 -7 -7 -7 -10 -9 -7 -6 -6 -5 -5 -5 -6 -8 -7 -10 -12 -12
9 9 6 4 3 3 2 1 -0 -1 -1 -4 -7 -10 -11 -18 -26 -29 -31 -31 -30 -26 -17 -11 0 4 -1 -2 -4 -3 -3 -5 -8 -9 -10 -10 -9 -8 -7 -4 -4 -6 -4 -6 -8 -12 -11
8 6 5 4 3 3 2 1 1 0 -3 -5 -7 -8 -12 -19 -27 -31 -30 -19 -10 -9 -2 3 2 3 -0 -5 -4 -3 -3 -4 -5 -6 -6 -7 -9 -8 -7 -6 -3 -5 -6 -7 -8 -11 -9
7 6 4 3 3 2 2 1 0 -2 -3 -5 -6 -7 -11 -21 -31 -26 -25 -0 3 5 4 1 -3 -1 -8 -10 -9 -10 -10 -4 -5 -6 -4 -6 -6 -5 -6 -7 -7 -6 -5 -5 -7 -10 -9
6 5 3 3 2 2 1 0 -1 -2 -3 -1 -4 -5 -11 -24 -28 -17 -7 -3 -5 -4 -7 -6 -10 -7 -5 -4 -5 -7 -11 -6 -6 -4 -6 -6 -4 -6 -8 -8 -8 -7 -7 -6 -8 -9 -7
5 4 3 2 1 1 1 -0 -1 0 1 -1 -4 -7 -16 -19 -22 -10 -5 -5 -6 -4 -3 -8 -6 -4 -3 -3 -4 -6 -10 -10 -6 -5 -4 -4 -6 -7 -4 -5 -5 -6 -6 -6 -6 -8 -7
3 2 2 1 1 1 0 1 1 -0 -2 -3 -8 -13 -18 -18 -9 -6 -2 -6 -4 -3 1 -7 -6 -4 -3 -3 -2 -5 -5 -8 -7 -6 -7 -6 -7 -7 -6 -5 -6 -3 -7 -7 -4 -3 0
1 1 1 1 1 1 0 0 -0 -1 -3 -7 -12 -16 -15 -12 -3 -3 -4 -6 -2 2 -0 -8 -4 -4 -8 -6 -8 -3 -5 -7 -7 -7 -6 -5 -7 -6 -4 -4 -8 -7 -7 -4 -3 -0 0
1 0 0 0 0 0 -0 -0 -2 -3 -4 -8 -13 -14 -9 -7 -6 -2 -6 -14 1 5 -2 -10 -6 -7 -15 -13 -10 -7 -6 -6 -6 -7 -7 -7 -9 -8 -8 -7 -6 -5 -3 -4 -2 -1 3
0 0 0 0 -0 -0 -1 -2 -1 -3 -6 -10 -14 -17 -14 -4 -1 -3 -19 1 4 0 -16 -11 -9 -11 -15 -17 -21 -18 -11 -5 -4 -3 -3 -5 -5 -7 -7 -3 -5 -3 -1 0 -0 -1 2
0 -0 -0 -0 -1 -1 -1 -1 -3 -5 -8 -10 -16 -16 -9 -2 -8 -15 -1 -0 -1 -18 -13 -12 -14 -15 -15 -19 -21 -19 -14 -12 -13 -13 -8 -7 -6 -8 -5 -2 -3 -3 -1 2 1 3 1
-0 -1 -1 -1 -1 -2 -3 -2 -3 -4 -10 -14 -15 -8 -0 -1 -18 -10 -0 -0 -5 -8 -11 -11 -16 -18 -18 -19 -14 -10 -10 -13 -15 -15 -10 -3 -5 -6 -6 -6 -5 -3 -2 -4 1 -0 1
-1 -1 -2 -1 -2 -2 -2 -3 -4 -9 -12 -11 -2 -2 -3 -18 -19 -1 -1 -5 -10 -12 -14 -14 -13 -19 -14 -13 -12 -12 -12 -14 -7 -4 -2 -1 2 -7 -6 -5 -4 -4 -4 4 7 5 3
-2 -2 -2 -2 -2 -2 -3 -4 -4 -10 -11 -10 -3 -3 -3 -21 -3 0 0 -8 -13 -13 -12 -12 -13 -13 -13 -12 -13 -13 -15 -16 -15 -5 -6 -3 1 2 -1 1 -0 -2 1 -0 2 4 6
-2 -3 -5 -7 -3 -4 -5 -8 -8 -9 -12 -5 -3 -1 -6 -6 -1 -6 -7 -10 -12 -12 -10 -11 -11 -11 -11 -11 -10 -10 -11 -12 -14 -13 -12 -4 4 4 -0 -5 -4 -4 -3 0 5 3 4
-3 -6 -8 -4 -4 -4 -4 -7 -7 -10 -4 -3 -4 -6 -17 -1 2 -5 -9 -11 -10 -10 -9 -9 -9 -10 -9 -8 -8 -10 -10 -11 -11 -12 -7 -4 0 2 -1 -4 -6 -2 -2 2 4 5 6
-6 -5 -7 -9 -4 -4 -5 -6 -8 -11 -7 -3 -4 -0 -6 -6 -7 -5 -7 -8 -8 -8 -8 -8 -8 -8 -7 -7 -9 -9 -9 -10 -8 -7 -3 -3 -3 -0 3 1 1 4 4 2 1 7 4
-4 -4 -7 -7 -5 -4 -5 -9 -10 -11 -7 -2 -3 -0 -4 -1 -6 -7 -7 -9 -8 -7 -8 -9 -5 -5 -5 -6 -8 -8 -9 -8 -9 -9 -8 -5 -2 -4 -2 -3 -3 0 5 2 3 6 4
-2 -3 -4 -5 -5 -6 -5 -11 -11 -11 -4 -1 -7 -3 -6 -6 -7 -7 -7 -9 -10 -9 -11 -7 -6 -8 -9 -8 -9 -5 -7 -7 -6 -8 -6 -1 -0 -4 -3 -4 -4 0 -1 2 3 6 5
-2 -2 -2 -4 -5 -10 -8 -13 -11 -10 -2 -3 -4 -4 -3 -7 -7 -8 -7 -9 -10 -10 -10 -11 -11 -9 -9 -9 -10 -8 -8 -8 -7 -6 -3 -2 1 1 -1 -5 -2 3 -2 -3 -1 2 -1
-3 -2 -3 -5 -5 -10 -11 -10 -10 -5 -3 -1 -4 -5 -5 -4 -9 -10 -10 -11 -11 -11 -10 -10 -11 -9 -10 -8 -8 -8 -8 -8 -8 -7 -6 -2 -1 -0 1 -0 2 -3 -6 -6 -5 2 3
-4 -7 -5 -4 -4 -7 -9 -9 -8 -8 -4 -2 -6 -4 -6 -2 -11 -11 -11 -11 -11 -12 -10 -10 -11 -10 -8 -7 -4 -5 -5 -7 -7 -6 -6 -5 -2 2 2 2 2 -4 -5 -4 -3 5 1
-6 -7 -6 -5 -4 -6 -9 -9 -7 -8 -5 -3 -3 -4 -5 -1 -10 -11 -12 -11 -9 -9 -8 -9 -9 -7 -7 -3 -2 -2 -2 -4 -3 1 -7 -7 -4 1 0 3 5 6 0 -4 -5 6 1
-7 -7 -6 -5 -7 -6 -9 -9 -8 -7 -7 -3 -2 -4 -4 -1 -8 -9 -5 -3 -8 -7 -7 -7 -7 -8 -5 -2 -1 1 -1 -4 -1 -1 -5 -3 -0 1 2 3 5 1 -0 -4 -1 4 0
-8 -7 -5 -4 -8 -5 -8 -9 -9 -9 -10 -4 -2 -3 -3 -4 -5 -7 -7 -8 -7 -7 -5 -6 -6 -3 -5 -2 -0 -2 -0 -0 2 -2 -4 -2 0 1 1 5 4 -1 -1 2 2 1 -1
-7 -6 -4 -5 -8 -5 -3 -7 -9 -12 -10 -4 -2 -4 -4 -4 -3 -4 -4 -4 -5 -6 -6 -7 -6 -6 -3 -1 -3 -2 -1 2 2 2 -1 3 2 4 2 2 1 -1 -1 -1 -1 -1 -1

GFSGBSN_850_dewp_087.txt.gz
Dewpoint
10 11 11 11 10 10 10 8 2 1 0 -8 -13 -14 -15 -17 -19 -20 -21 -22 -23 -25 -27 -28 -28 -28 -23 -5 -8 -17 -5 -8 -17 -16 -11 -4 -3 -6 -9 -9 -9 -9 -10 -10 -9 -9 -10
10 11 10 10 10 10 10 8 4 2 -0 -5 -12 -12 -14 -17 -18 -20 -21 -21 -24 -27 -28 -28 -27 -23 -14 0 -12 -8 -8 -9 -12 -3 -3 -1 -2 -5 -9 -10 -10 -11 -9 -9 -8 -8 -8
9 10 11 10 10 9 9 7 4 2 -0 -5 -9 -8 -13 -16 -18 -20 -20 -23 -27 -30 -30 -29 -23 -13 -8 -19 -12 -6 -5 -7 -10 -9 -6 -4 -4 -5 -6 -4 -5 -6 -5 -7 -8 -8 -9
9 10 10 10 10 8 7 6 4 2 -0 -5 -5 -6 -9 -14 -18 -19 -22 -27 -30 -31 -30 -24 -12 -3 -6 -22 -5 -8 -8 -7 -8 -8 -11 -10 -9 -8 -7 -6 -5 -4 -4 -4 -7 -9 -11
4 9 10 9 10 8 6 5 3 3 0 -1 -2 -3 -9 -14 -17 -20 -27 -30 -29 -26 -22 -13 -7 -1 3 -2 -3 -4 -3 -6 -7 -7 -8 -10 -10 -9 -8 -5 -2 -3 -2 -4 -5 -8 -9
4 8 8 9 7 6 5 4 3 3 1 0 -1 -4 -7 -12 -17 -24 -30 -27 -10 -5 -3 -2 4 4 2 -5 -5 -3 -3 -3 -4 -6 -8 -9 -9 -7 -7 -5 -0 -2 -4 -5 -5 -7 -8
5 8 9 8 6 6 4 3 3 2 1 0 -2 -4 -4 -8 -18 -27 -28 -11 1 4 5 3 2 -1 -4 -7 -10 -8 -9 -7 -4 -5 -4 -6 -5 -5 -6 -6 -6 -5 -6 -5 -6 -7 -8
6 7 8 7 6 5 4 3 2 1 0 -1 -0 -2 -4 -11 -22 -19 -6 -1 -5 -4 -4 -5 -2 -0 -7 -9 -5 -5 -8 -10 -5 -3 -5 -4 -3 -5 -6 -6 -6 -5 -5 -5 -7 -8 -8
8 8 8 6 5 4 3 2 1 1 0 0 -0 -2 -8 -16 -21 -9 -5 -5 -6 -11 -2 -5 -10 -2 -7 -4 -4 -7 -10 -11 -6 -4 -3 -2 -4 -6 -6 -5 -4 -4 -4 -4 -5 -7 -7
9 7 4 4 3 3 2 1 1 1 0 1 -0 -6 -12 -16 -11 -4 -2 -5 -11 -12 2 -2 -9 -5 -3 -3 -2 -4 -6 -9 -8 -5 -5 -4 -5 -5 -5 -3 -4 -2 -5 -5 -6 -4 1
4 3 3 2 2 1 1 1 1 1 -1 -2 -5 -10 -15 -13 -1 -2 -3 -4 -10 1 3 -7 -7 -4 -4 -3 -7 -4 -6 -7 -5 -5 -6 -3 -5 -5 -4 -5 -5 -4 -5 -4 -4 -2 -0
1 1 1 1 1 1 0 0 -0 -1 -1 -3 -8 -14 -12 -9 -4 -1 -4 -14 1 5 3 -5 -4 -5 -7 -9 -10 -4 -5 -7 -6 -5 -6 -6 -8 -8 -7 -7 -6 -5 -2 -1 -1 -1 2
1 0 1 0 0 0 0 -0 -0 -1 -2 -7 -11 -14 -4 -2 -0 -1 -7 1 5 4 -10 -9 -6 -11 -13 -14 -12 -15 -5 -3 -2 -1 -1 -4 -5 -7 -9 -6 -5 -4 -0 4 2 2 2
0 -0 0 -0 -0 -0 -0 -0 -0 -1 -1 -9 -12 -16 -10 -1 -1 -4 -1 1 3 -6 -10 -13 -14 -14 -13 -15 -16 -16 -12 -11 -11 -9 -9 -9 -6 -9 -6 -6 -2 -2 -0 4 5 4 3
0 0 -0 -0 -0 -0 -0 -1 -1 -2 -11 -12 -14 -10 -3 -2 -14 -4 1 2 -3 -8 -11 -12 -16 -15 -15 -16 -14 -10 -8 -8 -9 -1 2 2 -1 -3 -5 -4 -3 -1 -0 -2 2 2 3
-0 -1 -1 -1 -1 -1 -1 -2 -3 -8 -13 -11 -2 -1 -2 -5 -17 -1 1 -1 -7 -13 -14 -14 -14 -15 -12 -11 -11 -12 -11 -13 -13 -7 -10 -3 2 -1 -3 -3 -4 -3 -2 3 5 7 7
-1 -1 -2 -1 -1 -2 -3 -4 -4 -10 -11 -3 -2 -1 -2 -18 -4 1 2 -4 -12 -12 -11 -11 -11 -11 -11 -11 -10 -10 -12 -11 -11 -10 -11 -7 2 1 -1 -0 -0 -1 0 1 3 5 7
-2 -2 -1 -1 -2 -3 -4 -5 -7 -10 -13 -4 -2 0 -6 -6 1 1 -2 -8 -13 -11 -11 -10 -10 -11 -11 -8 -8 -9 -9 -10 -7 -7 -6 -2 1 0 -2 -4 -5 -1 1 2 4 4 5
-2 -3 -5 -4 -4 -4 -4 -8 -9 -11 -7 -4 -2 -5 -12 -2 1 -1 -8 -10 -10 -10 -9 -9 -9 -7 -7 -7 -7 -8 -7 -9 -8 -6 -1 -2 -0 2 -3 -4 -1 2 3 4 6 6 7
-6 -7 -6 -4 -4 -4 -5 -6 -8 -10 -5 -3 -1 -0 -7 -5 -7 -3 -6 -7 -7 -8 -6 -8 -8 -7 -6 -6 -8 -6 -8 -8 -9 -7 -4 -4 -1 0 1 -1 -2 3 2 0 5 7 7
-5 -6 -9 -7 -4 -5 -6 -7 -10 -12 -4 -2 -3 -0 -3 -1 -3 -4 -5 -8 -5 -6 -8 -7 -5 -5 -4 -4 -6 -6 -6 -6 -7 -8 -6 -3 -1 -2 -3 -5 -5 -4 1 -1 2 5 7
-4 -5 -7 -7 -6 -4 -6 -12 -11 -11 -3 -4 -3 -1 -5 -5 -7 -5 -6 -8 -9 -9 -10 -5 -5 -6 -8 -6 -6 -5 -5 -4 -4 -5 -4 -1 -0 -0 -2 -3 -2 -4 -5 -4 -1 4 5
-3 -3 -4 -5 -6 -7 -8 -11 -11 -6 -2 -3 -5 -4 -3 -6 -6 -5 -6 -8 -9 -8 -10 -11 -10 -8 -6 -6 -7 -7 -7 -7 -6 -5 -4 -4 -1 1 -2 -3 -1 0 -1 -2 1 3 3
-3 -2 -2 -4 -6 -11 -10 -11 -11 -3 -5 -4 -5 -4 -4 -3 -6 -6 -9 -10 -10 -10 -8 -10 -11 -8 -7 -9 -9 -8 -6 -7 -7 -7 -7 -4 -2 -0 0 -0 2 -4 -3 -1 4 4 4
-2 -3 -2 -6 -5 -10 -10 -10 -6 -4 -3 -4 -4 -4 -4 -2 -5 -9 -9 -10 -11 -11 -10 -10 -10 -9 -9 -8 -3 -2 -3 -4 -4 -5 -4 -5 -2 1 1 2 0 -1 3 3 3 5 0
-3 -6 -4 -4 -5 -7 -10 -9 -8 -6 -4 -4 -4 -4 -3 -0 -4 -11 -9 -11 -8 -6 -6 -6 -6 -7 -8 -3 -2 0 -1 -3 -1 -1 -3 -1 -1 -1 2 2 2 4 2 -0 1 5 -0
-2 -7 -5 -5 -5 -5 -9 -8 -7 -8 -5 -6 -6 -4 -3 -2 -7 -5 -4 -3 -7 -5 -5 -4 -6 -5 -6 -4 -4 0 0 -3 0 3 -1 -0 0 1 1 1 2 1 -0 -1 3 3 -1
-6 -7 -5 -6 -6 -6 -9 -8 -8 -7 -7 -5 -5 -5 -4 -3 -4 -5 -7 -7 -6 -5 -4 -6 -5 -5 -3 -3 0 -3 -3 -1 0 3 1 0 1 2 1 2 3 -1 -1 1 1 -1 -2
-7 -7 -4 -4 -8 -5 -8 -9 -10 -10 -10 -3 -3 -6 -5 -4 -3 -5 -6 -6 -6 -5 -5 -6 -6 -3 -2 -4 -3 -2 -1 0 1 2 1 3 3 2 1 1 -0 -1 -2 -2 -1 -1 -2

GFSGBSN_850_dewp_093.txt.gz
Dewpoint
1 2 3 5 8 8 9 10 10 10 10 10 10 10 10 7 4 2 -4 -5 -7 -18 -20 -21 -21 -23 -25 -22 -20 -17 -18 -18 -10 -9 -15 -13 -6 -8 -7 -9 -7 -6 -6 -6 -6 -6 -5
-2 -2 -1 0 1 4 5 7 9 10 10 10 10 10 9 9 4 1 -3 -5 -7 -18 -20 -20 -22 -26 -19 -8 -15 -10 -12 -17 -8 -9 -10 -9 -3 -3 -3 -4 -8 -9 -10 -9 -8 -7 -8
-3 -3 -3 -3 -2 1 2 4 8 9 9 10 9 9 8 8 6 0 -3 0 -10 -18 -19 -23 -25 -21 -4 -16 -17 -15 -7 -7 -8 -9 -6 -3 -3 -7 -7 -6 -6 -5 -3 -5 -5 -6 -8
-4 -3 -4 -5 -4 -3 0 4 7 6 8 9 8 7 6 3 3 5 -3 -5 -13 -17 -21 -23 -20 -8 1 -20 -25 -22 -14 -7 -7 -6 -7 -9 -11 -10 -9 -8 -7 -5 -4 -2 -5 -7 -7
-6 -7 -8 -7 -6 -4 -2 1 5 6 8 8 8 6 5 3 3 1 -1 -4 -12 -17 -22 -14 -7 1 0 -15 -12 -13 -11 -14 -9 -7 -7 -7 -7 -10 -9 -6 -4 -5 -2 -2 -4 -6 -7
-5 -7 -8 -8 -4 -4 -2 0 6 8 8 7 6 5 4 3 4 1 -0 -4 -13 -14 -7 -2 1 0 -6 -9 -4 -4 -6 -7 -6 -8 -7 -7 -8 -8 -7 -6 -1 -2 -3 -3 -3 -6 -7
-2 -2 -3 -4 -2 -2 -1 1 6 7 7 7 6 5 4 3 3 2 -0 -2 -2 -1 1 -2 -2 -6 -9 -7 -6 -9 -3 -4 -4 -5 -5 -8 -7 -5 -8 -7 -6 -5 -4 -4 -6 -7 -6
-1 -2 2 3 1 1 5 7 7 7 7 7 5 5 3 3 2 -0 -0 -3 -3 -3 -2 -2 -5 -0 -7 -3 1 -10 -8 -5 -7 -2 -5 -4 -3 -6 -6 -7 -6 -6 -5 -4 -6 -7 -6
1 -3 3 7 7 7 6 5 7 7 7 6 5 3 3 1 -0 -0 -0 -2 -6 -5 -6 -8 -8 0 -2 -2 2 -4 -8 -9 -7 -6 -3 -2 -3 -4 -5 -4 -4 -4 -4 -4 -3 -5 -5
2 -1 1 6 7 7 7 6 7 6 5 3 3 2 1 -0 -1 -2 -9 -8 -4 -6 -11 -9 -6 -6 -1 -3 -2 -8 -6 -8 -8 -6 -3 -2 -4 -4 -3 -3 -4 -2 -5 -4 -3 -3 -1
3 4 5 6 7 7 7 6 4 3 3 2 1 1 1 0 -6 -6 -3 -4 -4 -7 -5 -9 -5 -9 -4 -4 -3 -4 -5 -9 -8 -7 -6 -4 -5 -3 -3 -3 -4 -3 -4 -3 -3 -2 -0
1 3 4 5 4 3 2 2 2 1 1 0 0 0 0 -2 -6 -1 -3 -4 -5 3 -2 -4 -4 -3 -2 -3 -4 -4 -7 -7 -7 -7 -6 -6 -8 -7 -6 -7 -6 -6 -3 -2 -1 0 2
2 1 1 2 2 1 1 1 1 1 0 -0 -0 -1 -7 -12 -5 -1 -2 -6 2 3 -7 -1 -1 -2 -1 -1 -2 -4 -4 -3 -2 -1 -2 -4 -5 -6 -7 -5 -6 -5 -3 1 1 3 3
1 1 1 1 1 1 1 1 1 0 0 0 -0 -2 -13 -3 -0 -1 -2 2 4 -7 -8 -12 -5 -3 -0 -12 -11 -9 -4 -2 -10 -2 -2 -2 -3 -3 -3 -2 -2 -3 -3 1 3 4 -1
0 0 0 1 1 1 0 0 0 0 0 0 -4 -5 -13 -2 0 -1 -0 3 -1 -7 -11 -11 -12 -8 -9 -11 -12 -10 -10 -8 -9 -10 -1 -3 -0 -6 -3 -7 -3 -2 -1 -3 0 0 3
-0 -0 -0 0 -0 -0 -0 -0 -0 -1 -1 -2 -13 -9 -9 -3 -2 -2 2 2 -7 -9 -9 -8 -8 -9 -9 -10 -10 -10 -9 -8 -9 -10 -9 -6 -6 -3 -7 -5 -5 -5 -2 2 3 6 6
-1 -1 -1 -0 -1 -1 -1 -1 -1 -4 -2 -7 -5 -2 0 0 -5 1 2 0 -9 -9 -9 -7 -9 -9 -8 -8 -8 -8 -6 -5 -8 -8 -5 -4 -4 -4 -10 -4 -4 -5 -2 2 4 4 6
-1 -1 -2 -1 -1 -1 -2 -2 -9 -11 -9 -4 -1 -1 -2 -5 1 1 1 -5 -9 -8 -8 -8 -6 -5 -6 -6 -7 -6 -5 -5 -6 -6 -5 -4 -2 0 -5 -7 -6 -5 3 3 5 5 3
-2 -2 -1 -1 -2 -3 -2 -5 -9 -7 -3 -2 -2 -4 -3 -1 1 -1 -7 -6 -5 -7 -6 -6 -6 -5 -6 -6 -5 -6 -5 -5 -7 -5 -6 -6 -3 -3 -10 -7 -5 -3 -4 -4 -1 2 4
-2 -2 -1 -2 -3 -4 -6 -8 -10 -9 -4 -3 -2 -4 -5 -4 -1 -3 -5 -6 -5 -7 -6 -5 -4 -5 -6 -4 -6 -6 -4 -5 -7 -4 -3 -5 -3 -4 -3 -5 -3 -2 -3 -3 -2 1 2
-3 -2 -2 -2 -3 -5 -6 -8 -11 -8 -4 -2 -2 -3 -4 -2 -3 -4 -5 -5 -5 -5 -7 -6 -5 -4 -4 -3 -6 -4 -4 -5 -6 -6 -3 -4 -2 -2 -2 -3 -5 -5 -4 -5 -3 -3 -0
-4 -4 -2 -3 -4 -5 -7 -8 -11 -7 -2 -4 -3 -3 -4 -5 -6 -6 -5 -5 -4 -6 -5 -5 -4 -6 -7 -5 -6 -5 -5 -6 -6 -6 -5 -4 -2 -4 -4 -8 -8 -4 -4 -4 -4 -4 -4
-5 -7 -4 -4 -5 -6 -9 -10 -12 -4 -3 -5 -4 -3 -5 -5 -6 -6 -6 -6 -6 -7 -8 -9 -8 -7 -6 -5 -7 -8 -8 -8 -7 -5 -4 -4 -4 -3 -4 -5 -3 -3 -2 2 -3 -5 -2
-7 -7 -6 -5 -5 -7 -11 -10 -7 -4 -4 -5 -4 -4 -6 -4 -6 -6 -6 -7 -7 -8 -8 -10 -10 -8 -7 -9 -8 -7 -6 -6 -6 -6 -6 -4 -4 -3 -1 -3 0 -3 1 1 2 2 2
-4 -4 -5 -6 -9 -10 -11 -5 -3 -4 -5 -5 -4 -5 -5 -3 -6 -8 -8 -7 -9 -10 -10 -5 -6 -7 -7 -6 -3 -3 -3 -5 -4 -4 -4 -6 -4 -2 -2 -0 -2 -3 1 1 2 2 1
-2 -3 -3 -5 -10 -10 -10 -3 -3 -5 -5 -5 -5 -5 -8 -5 -4 -5 -7 -9 -6 -6 -4 -6 -7 -6 -6 -4 -3 -1 -2 -3 -2 -1 -2 -4 -4 -2 1 -1 -0 -1 -2 -1 1 2 -1
-2 -3 -2 -5 -10 -10 -8 -4 -4 -5 -6 -5 -5 -5 -8 -5 -4 -7 -6 -6 -6 -6 -4 -5 -5 -5 -6 -6 -5 -4 -1 -2 0 -1 1 0 -0 -1 -0 1 -0 -2 -1 -1 2 1 -3
-2 -2 -5 -5 -8 -9 -8 -7 -5 -6 -8 -8 -5 -7 -8 -5 -5 -6 -8 -7 -5 -6 -5 -6 -5 -6 -5 -3 -4 -5 -5 -2 -1 -2 1 1 1 1 0 2 2 -2 -2 -1 -1 -3 -4
-2 -3 -4 -5 -5 -9 -8 -9 -7 -8 -7 -7 -5 -6 -7 -7 -6 -7 -7 -7 -7 -7 -7 -5 -6 -3 -5 -5 -5 -5 -3 -3 -2 0 -0 1 -0 0 -1 -1 -2 -3 -3 -3 -3 -3 -4

GFSGBSN_850_dewp_096.txt.gz
Dewpoint
-2 -2 -2 -1 -0 1 2 4 5 6 7 9 10 10 10 10 10 10 8 5 1 -1 -3 -9 -18 -20 -20 -20 -16 -11 -11 -14 -12 -20 -10 -13 -9 -9 -11 -10 -6 -4 -4 -4 -5 -6 -6
-4 -4 -3 -3 -4 -4 -3 -2 0 1 1 7 7 9 10 10 10 9 6 5 -1 -5 -4 -13 -18 -20 -18 -16 -8 -13 -10 -14 -18 -10 -10 -12 -8 -9 -5 -4 -7 -8 -8 -9 -8 -7 -7
-10 -11 -9 -7 -6 -4 -5 -4 -4 -3 -2 1 4 9 9 9 9 7 6 3 3 -3 -5 -15 -18 -17 -12 -15 -7 -13 -17 -9 -11 -8 -9 -4 -8 -2 -5 -7 -7 -6 -3 -5 -5 -5 -5
-12 -13 -11 -8 -8 -9 -9 -8 -5 -4 -3 2 7 7 7 8 7 7 6 6 3 -2 -8 -16 -13 -2 -1 -7 -12 -13 -15 -8 -7 -8 -9 -8 -5 -6 -9 -9 -7 -6 -5 -2 -5 -6 -6
-6 -12 -8 -6 -5 -6 -9 -8 -6 -3 -2 2 6 7 7 8 6 6 5 5 3 3 -7 -12 1 0 -1 -8 -11 -13 -22 -19 -6 -7 -7 -6 -8 -9 -9 -7 -5 -5 -2 -3 -4 -6 -7
-2 -9 -10 -8 -3 -4 -5 -7 -5 -2 0 2 7 7 7 7 6 6 5 5 2 1 -4 -1 2 0 -3 -6 -3 -4 -8 -13 -15 -9 -7 -6 -8 -8 -7 -5 -3 -2 -2 -3 -3 -6 -7
1 -7 -9 -8 -4 -4 -4 -3 -1 -1 2 5 6 7 7 7 6 5 4 3 1 1 -1 0 0 -3 -7 -2 -5 -8 -4 -5 -5 -6 -5 -7 -6 -5 -7 -7 -6 -5 -4 -3 -5 -7 -7
1 -0 -4 -7 -4 -3 0 4 3 6 7 6 7 8 7 6 5 4 3 2 1 1 1 1 -1 -1 -5 -5 -2 -7 -4 -4 -4 -2 -5 -5 -4 -6 -8 -8 -7 -6 -5 -5 -6 -7 -6
2 2 0 -2 -4 3 6 7 6 6 6 6 7 7 7 4 3 2 2 1 -0 -1 -1 -3 -3 -4 -2 -2 -2 -2 -7 -4 -6 -2 -3 -3 -4 -5 -5 -4 -4 -4 -4 -4 -4 -5 -5
2 1 1 -1 -3 5 6 6 6 6 6 6 7 6 4 3 2 1 -0 0 -3 -2 -3 -8 -5 -4 -3 -0 1 -11 -5 -8 -7 -4 -3 -3 -4 -4 -3 -3 -3 -2 -4 -4 -3 -2 -1
2 3 2 2 -1 6 6 6 7 7 7 6 3 2 2 1 -0 -2 -1 -7 -3 -3 -0 -11 -5 -8 -2 -2 -6 -3 -5 -9 -7 -6 -4 -2 -4 -3 -2 -3 -4 -2 -3 -3 -3 -2 -1
2 2 2 2 4 4 6 7 5 3 2 2 1 1 0 0 -1 -0 -2 -3 -2 -0 -1 -7 -5 -1 1 -2 -3 -5 -6 -8 -8 -7 -6 -5 -7 -7 -5 -5 -5 -6 -4 -2 -1 -0 1
2 2 2 3 3 3 3 3 2 1 1 0 0 0 0 0 -0 -0 -1 -2 -2 -1 -6 -2 -2 -2 -2 -3 -2 -4 -5 -3 -3 -2 -3 -5 -5 -7 -6 -6 -6 -5 -4 -0 -0 2 1
1 1 2 1 1 1 1 1 1 2 1 0 -0 0 -1 -2 -0 0 -1 0 -2 -9 -11 -11 -6 -2 -0 -2 -6 -4 -3 -5 -11 -3 -2 -2 -3 -3 -3 -2 -2 -2 -3 0 2 3 1
1 -0 0 1 1 2 1 1 1 0 -0 -0 -0 -3 -9 -2 0 -0 -1 1 -4 -6 -9 -7 -0 -1 -9 -11 -9 -10 -8 -8 -10 -10 -2 -0 0 -5 -7 -8 -4 -2 -1 -2 -0 1 2
-1 -0 -1 -0 -0 -0 -0 0 0 -0 -0 -0 -2 -2 -9 0 0 -1 1 -1 -4 -6 -7 -5 3 -2 -9 -8 -9 -8 -7 -7 -9 -7 -8 -6 -8 -4 -7 -6 -7 -6 -3 3 3 5 4
-2 -1 -1 -1 -1 -1 -1 -1 -1 -1 -1 -4 -9 -1 -5 -1 -1 0 1 -1 -6 -6 -7 -5 -5 -5 -7 -7 -7 -6 -5 -5 -7 -6 -5 -5 -6 -6 -9 -5 -7 -8 -2 2 3 4 6
-2 -2 -1 -1 -1 -1 -2 -1 -3 -2 -1 -7 -1 -1 -3 -1 -0 -0 0 -2 -7 -5 -6 -5 -3 -3 -4 -5 -5 -4 -4 -4 -6 -6 -5 -5 -2 -2 -6 -6 -5 -5 3 2 3 4 3
-2 -2 -2 -2 -1 -1 -2 -3 -9 -8 -3 -1 -2 -1 -1 -2 1 1 -3 -5 -4 -5 -4 -3 -3 -4 -4 -5 -5 -5 -4 -5 -4 -5 -6 -7 -3 -6 -10 -7 -7 -3 -4 -2 -1 0 1
-2 -2 -1 -1 -1 -2 -2 -5 -9 -5 -3 -2 -4 -4 -3 -1 -2 -2 -5 -4 -4 -5 -4 -4 -4 -4 -5 -4 -5 -4 -3 -5 -7 -3 -3 -5 -4 -7 -9 -9 -3 -2 -3 -4 -2 -3 -3
-2 -2 -2 -2 -2 -3 -5 -7 -8 -6 -3 -3 -1 -5 -5 -3 -2 -3 -5 -4 -4 -5 -6 -6 -4 -4 -4 -5 -5 -4 -5 -6 -6 -5 -4 -4 -3 -3 -3 -3 -5 -4 -7 -8 -5 -4 -2
-3 -3 -3 -2 -2 -4 -6 -7 -9 -8 -4 -2 -3 -3 -3 -4 -4 -5 -5 -5 -4 -6 -5 -5 -4 -6 -6 -5 -6 -5 -6 -7 -7 -6 -5 -4 -2 -4 -4 -5 -6 -7 -6 -5 -4 -4 -4
-4 -2 -2 -2 -4 -5 -7 -8 -10 -7 -3 -3 -4 -4 -4 -5 -6 -6 -6 -5 -6 -7 -9 -7 -7 -6 -5 -6 -8 -8 -8 -8 -8 -6 -5 -5 -4 -4 -5 -5 -6 -8 -5 1 1 0 1
-4 -5 -2 -3 -4 -5 -9 -9 -10 -6 -3 -4 -4 -4 -6 -4 -6 -6 -6 -7 -7 -8 -8 -9 -9 -7 -8 -8 -7 -6 -6 -7 -6 -6 -7 -4 -4 -4 -3 -4 -6 -2 -0 0 1 1 -0
-5 -6 -3 -5 -5 -7 -10 -7 -3 -4 -4 -6 -4 -5 -6 -4 -6 -7 -7 -7 -8 -6 -5 -5 -5 -6 -7 -6 -4 -4 -4 -4 -4 -5 -5 -6 -4 -3 -4 -1 -4 -2 -1 -0 1 -0 -1
-6 -6 -3 -6 -6 -10 -8 -3 -3 -4 -4 -4 -5 -5 -8 -4 -5 -6 -7 -8 -6 -5 -4 -6 -6 -7 -7 -5 -4 -2 -1 -2 -2 -2 -4 -5 -4 -2 -1 -2 -1 -2 -3 -2 -1 1 -2
-4 -4 -4 -7 -10 -10 -5 -3 -4 -5 -5 -5 -5 -7 -8 -5 -4 -6 -7 -5 -6 -5 -4 -5 -5 -6 -6 -6 -5 -5 -1 -3 -0 -1 1 -1 -1 -1 -1 -1 -2 -3 -3 -2 1 -1 -3
-2 -2 -2 -6 -11 -10 -5 -4 -5 -6 -7 -6 -5 -8 -9 -6 -5 -6 -8 -7 -6 -6 -5 -6 -6 -6 -6 -4 -4 -6 -6 -3 -2 -5 1 0 0 0 -1 0 -0 -3 -4 -3 -2 -4 -4
-2 -2 -4 -6 -10 -9 -7 -6 -5 -7 -9 -6 -6 -8 -8 -8 -5 -6 -7 -7 -7 -8 -7 -6 -6 -4 -5 -5 -5 -5 -3 -5 -4 -1 -2 -2 -2 -1 -1 -2 -2 -4 -4 -4 -4 -5 -5

GFSGBSN_850_dewp_102.txt.gz
Dewpoint
-4 -5 -5 -5 -6 -6 -6 -5 -6 -5 -5 -5 -6 -6 -6 -3 -1 6 9 9 9 9 9 9 9 8 6 -2 -1 -1 -4 -9 -8 -11 -6 -6 -8 -9 -10 -12 -11 -7 -11 -12 -11 -11 -10
-8 -10 -11 -13 -14 -14 -13 -11 -11 -10 -9 -8 -9 -9 -8 -5 -4 3 6 8 8 8 8 8 7 6 1 1 3 4 -2 -10 -8 -7 -6 -7 -9 -10 -12 -13 -12 -11 -9 -9 -7 -7 -7
-17 -17 -18 -18 -18 -18 -17 -16 -15 -14 -13 -10 -10 -9 -8 -7 -5 7 6 7 7 8 7 7 5 4 2 3 5 4 2 -8 -4 -5 -7 -8 -10 -10 -10 -9 -10 -8 -7 -9 -8 -8 -9
-19 -19 -19 -19 -19 -19 -18 -17 -17 -16 -14 -13 -10 -10 -7 -5 1 6 6 7 6 7 6 6 5 4 3 3 3 4 1 -6 -9 -4 -6 -8 -7 -7 -6 -7 -8 -7 -7 -5 -7 -8 -8
-19 -20 -20 -20 -20 -20 -20 -20 -20 -18 -16 -13 -9 -10 -8 -5 5 5 6 6 6 6 6 5 4 2 2 2 2 1 0 -3 -6 -3 -5 -3 -5 -6 -4 -5 -5 -6 -4 -4 -6 -6 -7
-16 -18 -19 -20 -21 -21 -21 -20 -20 -17 -15 -12 -9 -8 -3 -1 6 5 6 5 6 6 4 3 2 3 3 2 -1 -4 -3 -2 -6 -8 -3 -3 -4 -4 -5 -5 -2 -3 -4 -5 -5 -7 -7
-9 -15 -18 -19 -21 -22 -19 -16 -13 -13 -11 -7 -5 -2 5 5 6 7 5 6 4 4 2 4 3 2 2 -1 -3 -2 -2 -3 -8 -8 -3 -5 -4 -3 -5 -6 -6 -6 -6 -5 -6 -8 -7
-3 -4 -2 -4 -16 -19 -12 -7 -7 -6 -2 -1 3 6 6 5 6 6 6 6 4 3 4 3 3 3 3 1 -1 -2 -2 -5 -9 -7 -6 -4 -1 -4 -6 -7 -7 -5 -5 -6 -8 -9 -10
-1 1 1 -4 -10 -8 -5 -4 -2 2 4 5 6 6 5 6 6 6 5 5 5 4 2 2 2 2 2 2 2 1 -2 -3 -5 -6 -8 -1 -2 -7 -7 -5 -5 -5 -6 -7 -9 -7 -6
-1 -1 0 1 1 -0 -3 -1 -1 4 5 5 5 5 6 6 5 5 4 5 4 3 4 1 -0 -0 1 1 2 1 -1 -2 -1 2 -2 -1 -4 -4 -4 -5 -6 -5 -9 -9 -6 -3 -4
-1 -0 0 0 1 1 -0 -0 -0 5 6 5 5 6 6 5 5 3 4 4 3 1 6 -4 -4 -4 -2 1 -2 -1 1 -2 0 -1 -0 1 -2 -1 -0 -4 -7 -6 -7 -4 -5 -3 -3
-1 -1 -0 0 0 0 -0 0 0 1 6 6 6 6 6 6 4 4 3 2 1 5 6 -2 -7 -4 -2 -1 -2 -3 1 -2 -1 4 4 2 0 1 0 -0 -2 -5 -4 -3 -3 -3 -0
-1 -1 -1 -0 2 1 2 2 2 3 5 6 6 5 4 3 2 2 1 1 3 6 -4 -2 -3 -2 -3 -4 -3 -3 2 1 3 5 5 2 0 -5 -5 -3 -3 -2 -3 1 1 0 -2
-1 -1 -0 0 2 2 2 2 2 2 2 2 1 1 1 2 2 1 1 2 5 2 -3 -9 -9 -6 -1 -4 -4 -3 3 3 0 -3 -2 -1 0 -6 -6 -5 -4 -2 -4 -0 1 -2 -4
-2 -1 0 0 -0 1 2 2 2 2 2 2 2 2 2 1 1 1 1 4 3 -1 -4 -5 -5 -0 -1 -5 -7 -5 -2 -1 -5 -5 -2 -2 -2 -5 -7 -6 -4 -4 -2 -6 -3 -3 -2
-2 0 1 -0 -1 1 1 1 1 1 1 1 1 -0 -0 -0 -0 0 2 1 -2 -7 -8 -6 -2 2 1 -5 -5 -4 -4 -7 -7 -6 -6 -4 -1 -4 -8 -7 -8 -3 -5 1 -0 0 -1
-3 -1 1 0 -2 -1 -0 0 0 -0 -0 -5 -3 -2 -1 -0 -0 0 2 -2 -4 -6 -7 -4 -2 1 0 -5 -5 1 -4 -5 -6 -6 -6 -5 -5 -4 -7 -6 -6 -6 -2 1 1 0 0
-4 -2 0 -0 -1 -2 -1 -1 -0 -0 -0 -0 -1 -1 -0 -1 1 1 -1 -4 -5 -5 -6 -4 -1 -1 -0 -3 1 -0 -2 -4 -3 -4 -3 -6 -7 -7 -6 -5 -8 -9 -4 -4 -2 -3 -1
-4 -4 -1 -0 -2 -1 -1 -2 -2 -0 -1 -2 -0 -1 -1 -1 1 -0 -3 -5 -5 -5 -5 -2 -2 -1 -5 -2 -4 0 0 -1 -2 -3 -5 -7 -7 -4 -6 -5 -6 -6 -4 -5 -4 -4 -3
-4 -3 -1 -0 -1 -1 -1 -1 -3 -1 -1 -1 -2 -0 -1 -1 -0 -1 -2 -3 -4 -6 -5 -4 -2 -1 -3 -4 -6 -4 -4 -5 -3 -4 -3 -8 -9 -10 -9 -6 -5 -4 -5 -7 -4 -1 -6
-4 -4 -3 -0 -1 -1 -1 -3 -3 -1 -2 -1 -3 -2 -5 -0 -1 -2 -3 -5 -3 -4 -4 -5 -3 -0 2 -3 -5 -5 -6 -5 -5 -5 -5 -6 -8 -9 -8 -8 -8 -7 -7 -9 -9 -10 -8
-3 -3 -3 -1 -1 -1 -1 -2 -7 -2 -3 -1 -1 -4 -5 -6 -5 -2 -2 -4 -5 -5 -5 -5 -2 -5 -4 -1 -5 -5 -7 -7 -7 -7 -6 -6 -4 -6 -8 -9 -8 -8 -10 -11 -11 -11 -12
-3 -4 -4 -1 -1 -1 -1 -2 -6 -2 -2 -1 -1 -2 -5 -5 -5 -3 -3 -5 -5 -6 -5 -4 -5 -6 -6 -7 -8 -8 -8 -8 -7 -8 -7 -8 -4 -7 -13 -10 -10 -10 -9 -11 -12 -11 -5
-1 -2 -2 -1 -1 -1 -2 -2 -6 -3 -3 -1 -2 -2 -2 -3 -7 -4 -6 -6 -6 -7 -5 -7 -8 -7 -6 -6 -7 -8 -9 -9 -9 -8 -10 -8 -8 -8 -10 -8 -4 -1 -3 -2 -1 -2 -1
-1 -1 -1 -1 -1 -2 -2 -3 -7 -8 -5 -2 -2 -2 -3 -3 -8 -6 -6 -7 -7 -7 -6 -6 -5 -4 -6 -7 -7 -5 -4 -4 -3 -4 -8 -9 -6 -3 -1 -3 -6 -1 -1 -0 -0 -1 -2
-1 -1 -1 -1 -2 -2 -5 -3 -7 -9 -7 -2 -2 -4 -4 -3 -5 -7 -6 -7 -6 -6 -5 -5 -4 -5 -4 -5 -4 -5 -5 -6 -2 -2 -4 -6 -6 -3 -3 -1 -2 1 -4 -4 -2 0 -4
-1 -1 -1 -2 -4 -6 -6 -6 -8 -6 -2 -1 -3 -4 -5 -2 -4 -6 -7 -6 -6 -6 -6 -5 -5 -5 -4 -2 -1 -2 -3 -5 -2 -1 -1 -2 -2 -2 -2 -1 1 -2 -4 -4 1 -0 -5
-2 -1 -2 -4 -6 -10 -8 -3 -3 -3 -3 -2 -4 -4 -5 -3 -3 -4 -5 -5 -5 -7 -6 -4 -5 -5 -5 -4 -4 -2 -1 -2 -1 0 1 -1 -1 -1 -3 -1 1 -4 -4 -1 -3 -4 -4
-2 -2 -3 -7 -9 -5 -3 -3 -4 -4 -5 -5 -5 -7 -7 -3 -4 -6 -7 -7 -7 -8 -6 -5 -5 -5 -5 -6 -6 -4 -1 -1 -1 0 -1 1 -0 1 -0 -0 -3 -4 -4 -4 -4 -4 -5

GFSGBSN_850_dewp_105.txt.gz
Dewpoint
-2 -3 -4 -4 -5 -6 -6 -7 -7 -6 -6 -6 -6 -6 -7 -7 -6 -4 -1 3 6 8 8 8 8 8 7 3 3 5 3 1 -2 -7 -4 -4 -4 -4 -4 -5 -7 -6 -7 -8 -10 -11 -10
-4 -6 -8 -11 -13 -15 -15 -16 -16 -14 -14 -14 -13 -12 -11 -10 -8 -6 -3 5 5 6 8 7 8 7 5 5 4 3 1 2 -1 -1 -2 -3 -4 -4 -5 -6 -7 -8 -9 -9 -9 -10 -9
-14 -16 -17 -17 -18 -19 -18 -18 -18 -17 -17 -16 -16 -15 -13 -11 -8 -4 5 2 7 6 7 6 6 6 4 5 4 2 1 -1 1 -0 -1 -1 -4 -5 -6 -5 -6 -7 -7 -8 -8 -8 -7
-18 -19 -19 -19 -19 -19 -19 -19 -19 -18 -18 -18 -18 -17 -15 -12 -11 -5 6 3 7 6 6 6 6 5 4 4 3 3 2 -2 -3 -2 -2 -3 -4 -6 -6 -6 -6 -5 -4 -3 -5 -7 -8
-17 -18 -18 -19 -19 -19 -20 -19 -20 -20 -20 -20 -19 -17 -15 -11 -9 -4 6 6 7 5 6 5 5 4 3 2 2 2 1 1 -1 -3 -2 -2 -6 -4 -5 -3 -2 -1 -1 -1 -3 -6 -7
-14 -16 -18 -19 -20 -21 -21 -22 -23 -24 -23 -20 -17 -15 -14 -9 -4 3 6 5 6 6 5 5 4 4 3 2 1 -1 -1 -0 -0 -2 -3 -2 -4 -2 -2 -1 4 2 1 -1 -2 -4 -6
-10 -13 -14 -18 -20 -22 -24 -24 -25 -23 -18 -15 -13 -12 -7 -2 5 5 6 6 5 5 3 4 2 1 1 0 -0 -1 -0 -0 -2 -5 -4 -4 -1 1 -0 -0 -2 -1 -0 1 -4 -6 -5
-5 -8 -8 -9 -15 -22 -22 -23 -23 -19 -16 -11 -3 0 1 5 6 5 6 6 5 4 4 3 3 2 1 2 2 0 -2 -1 -2 -2 -4 -2 2 -1 -2 -2 -1 -0 -1 -0 -2 -4 -6
-3 -5 -2 -2 -11 -16 -21 -22 -19 -15 -15 -10 2 4 6 5 6 6 6 5 5 4 4 2 1 1 1 1 1 1 -0 -1 -2 -2 -3 -2 -1 -3 -2 0 3 3 2 -1 1 -0 -5
-2 -5 -2 -2 -3 -8 -12 -18 -15 -13 -10 -3 4 5 6 6 5 6 5 5 5 5 5 0 -1 -1 -0 0 1 0 0 -0 -1 -1 -2 -2 -4 -2 -1 1 2 4 -0 -3 -1 -2 -3
-1 -3 -4 -1 -2 -2 -2 -7 -11 -6 -4 5 6 5 5 5 5 5 5 5 5 4 7 -8 -4 -2 -2 0 -3 -4 -1 -0 0 -1 1 1 -1 -1 0 1 -2 3 -2 -0 -0 -4 -4
-4 -2 -4 -1 -2 -1 -1 -2 -3 -3 -1 6 6 5 5 5 5 5 5 5 4 5 4 -3 -6 -5 -3 -1 -2 -5 -2 -0 0 2 4 4 3 1 -1 -3 -1 1 2 -1 -1 -2 2
-3 -4 -3 -1 -1 -1 -1 0 0 0 2 6 7 6 6 6 5 5 4 3 4 6 -1 -1 -4 -5 -4 -3 -2 -4 -1 2 3 6 5 3 3 2 -0 2 -0 2 5 5 5 5 5
-4 -4 -2 -1 -0 1 1 1 1 2 4 5 6 6 5 5 5 4 3 3 6 1 1 -5 -5 -5 -2 -3 -3 -4 -2 2 -0 1 4 7 6 2 -0 1 3 2 3 3 5 4 1
-2 -3 -3 -1 -1 1 1 1 2 2 3 2 2 2 2 2 3 2 2 5 5 4 -1 -3 -5 -3 -2 -3 -3 -4 -3 1 -0 -0 3 2 -0 -5 -5 -5 -4 3 2 -2 0 -0 1
-3 -3 -3 -2 -0 1 1 1 2 2 2 2 2 2 1 1 1 1 2 4 1 -3 -5 -6 -2 1 -0 -2 -2 -5 -4 -3 0 0 -3 0 2 -5 -6 -7 -6 -3 -2 0 1 5 1
-6 -5 -4 -2 -0 1 1 1 1 1 1 1 1 1 -0 0 0 0 4 1 -2 -5 -7 -5 -3 1 -1 -1 -4 -4 -2 -5 -2 -6 -6 -3 -2 -1 -6 -5 -3 -4 4 2 3 2 3
-8 -6 -6 -4 -2 1 1 -0 -1 0 -0 -1 1 3 -0 -0 1 1 1 -1 -5 -5 -6 -5 -3 -2 -2 -1 -3 1 -1 -4 -4 -7 -3 -3 -1 0 -4 -5 -7 -7 -6 -1 5 2 4
-8 -5 -6 -4 -2 -1 0 -1 -1 0 -1 1 1 -0 -1 -0 3 2 -2 -3 -5 -4 -5 -3 -2 -3 -4 -1 -0 4 -1 -2 -2 -3 -3 -4 -2 -2 -4 -5 -7 -7 -7 -6 -4 -3 -4
-5 -7 -6 -4 -2 -0 -0 -1 -1 -0 -0 -0 0 2 -1 -1 -0 1 -1 -2 -3 -6 -5 -4 0 -3 -2 -1 -3 1 2 -1 -4 -5 -3 -5 -5 -4 -2 -4 -6 -4 -7 -8 -6 -1 -5
-5 -4 -5 -3 -2 -1 -1 -0 -1 -2 -0 -1 1 1 -2 2 1 -1 -1 -3 -3 -3 -6 -5 -0 -1 -1 -0 -2 -1 -2 -3 -4 -4 -6 -5 -4 -7 -10 -9 -10 -8 -7 -8 -8 -8 -8
-4 -3 -4 -4 -5 -2 -1 -0 -1 -2 -1 -1 0 -2 -4 -4 -4 -2 -1 -0 -4 -4 -5 -3 -2 -2 -1 1 -2 -3 -4 -5 -6 -6 -7 -7 -6 -6 -8 -10 -10 -11 -13 -13 -13 -13 -12
-3 -2 -3 -4 -3 -2 -0 -0 -2 -3 -1 -1 -0 -1 -3 -3 -3 -1 0 -4 -4 -3 -5 -4 -3 -4 -1 -1 -6 -7 -7 -7 -7 -6 -6 -6 -4 -7 -11 -11 -12 -12 -11 -12 -13 -15 -11
-2 -2 -4 -3 -3 -3 -0 -1 -3 -3 -1 -1 -0 0 -2 -1 -3 -3 -4 -5 -4 -3 -4 -5 -3 -6 -6 -7 -8 -8 -8 -8 -8 -9 -9 -8 -7 -9 -10 -9 -8 -2 -4 -3 -2 -4 -2
-3 -4 -3 -4 -3 -1 -1 -1 -2 -4 -1 -1 0 -0 -1 1 -7 -5 -4 -6 -4 -5 -2 -7 -6 -6 -7 -8 -7 -6 -7 -7 -8 -10 -11 -12 -9 -5 -2 -6 -5 -4 -3 0 -0 1 -2
-2 -2 -0 -2 -1 -1 -1 -1 -3 -3 -2 -2 -1 -0 1 1 -5 -5 -5 -5 -3 -4 -4 -4 -4 -4 -7 -7 -6 -6 -5 -9 -4 -4 -8 -8 -6 -3 -3 -2 -3 2 -4 -5 -2 0 -4
-1 -1 -1 -1 -1 -1 -2 -2 -4 -2 -2 -3 -2 -1 -0 1 -3 -4 -4 -4 -5 -5 -5 -5 -5 -5 -6 -3 -1 -3 -4 -7 -3 -2 -1 -3 -3 -2 -3 -3 1 -2 -5 -4 1 0 -4
-1 -1 -1 -1 -2 -2 -4 -3 -7 -6 -7 -4 -2 -2 -0 -1 -3 -4 -4 -5 -5 -7 -4 -5 -5 -5 -6 -3 -5 -3 -1 -4 -1 2 -2 -2 -2 -2 -4 -1 2 -4 -4 -1 -2 -4 -5
-1 -1 -2 -2 -5 -6 -5 -8 -8 -7 -3 -2 -1 -3 -4 -1 -2 -3 -3 -4 -4 -5 -7 -6 -5 -8 -6 -5 -6 -5 -2 -1 -1 -0 -2 1 2 2 0 1 -3 -4 -4 -4 -4 -4 -4

GFSGBSN_850_dewp_111.txt.gz
Dewpoint
4 3 2 2 1 -0 -2 -4 -5 -6 -7 -8 -9 -10 -10 -11 -12 -12 -11 -10 -9 -7 -6 -0 7 5 4 5 3 -8 -3 -2 3 3 3 1 -1 -2 -1 -2 -2 -2 -2 -2 -3 -4 -5
-0 -1 -2 -3 -4 -4 -5 -7 -10 -13 -15 -16 -16 -16 -16 -16 -16 -15 -15 -12 -11 -7 -0 2 6 6 5 4 -8 1 4 4 4 3 1 -0 0 -0 -1 -1 -1 -1 -1 -1 -2 -4 -4
3 2 -2 -5 -7 -10 -13 -15 -17 -18 -18 -18 -18 -18 -17 -18 -17 -17 -16 -14 -11 -7 5 3 6 5 5 3 -8 -8 3 4 3 -1 -1 0 -0 -0 -0 1 -0 -1 -1 -2 -3 -4 -4
2 -2 -4 -10 -13 -15 -17 -17 -18 -19 -19 -19 -18 -18 -19 -18 -18 -17 -16 -11 -9 -4 6 4 5 5 5 -3 -1 -3 -3 -2 1 2 -0 -2 -1 -2 -1 -1 -1 -1 -1 1 -2 -3 -3
-4 -7 -13 -15 -16 -16 -17 -18 -19 -19 -19 -19 -20 -21 -20 -19 -18 -14 -11 -7 -3 3 6 4 5 5 4 1 -0 -3 0 2 2 1 2 -0 -2 -1 -1 1 1 0 3 1 0 -2 -2
-5 -7 -8 -12 -13 -15 -16 -17 -19 -19 -20 -20 -22 -23 -20 -13 -10 -5 -3 0 2 5 5 4 5 4 1 -3 -0 1 0 1 2 2 2 -0 -1 -1 1 2 4 2 2 1 0 -3 0
0 -1 -2 -4 -8 -13 -14 -16 -18 -18 -20 -23 -24 -24 -18 -9 -4 4 4 4 5 5 4 3 1 4 -1 -1 -2 0 -1 -1 -0 1 2 1 2 2 1 1 0 -0 0 -0 -2 -1 1
2 2 1 -0 -3 -7 -11 -13 -15 -19 -22 -24 -24 -23 -16 -6 2 3 5 4 3 4 5 4 3 3 0 -3 1 -1 -1 -1 -0 1 -0 1 2 -1 -2 -1 -1 -2 -1 0 -1 -2 -0
2 2 2 1 -1 -4 -7 -11 -12 -16 -20 -23 -23 -21 -14 -4 5 5 4 4 4 4 4 2 1 2 4 2 3 1 -1 -1 -1 0 0 1 -1 -3 -3 -3 -3 -3 -0 -0 -0 -2 -0
-0 1 1 1 -0 -1 -4 -6 -7 -11 -16 -21 -23 -16 -8 3 6 5 5 4 4 4 4 2 -1 0 2 2 2 0 0 -1 -1 1 -0 -0 -2 -1 -1 -1 -2 0 -2 2 3 5 6
-1 -2 -3 -3 -2 -1 -3 -4 -5 -7 -12 -20 -23 -16 -5 5 4 4 4 4 4 4 5 -6 -5 -3 -2 1 -2 -2 -0 0 1 0 0 1 0 -0 3 1 1 2 2 3 4 4 5
-1 -2 -2 -2 -2 -1 -2 -4 -5 -5 -6 -13 -20 -16 -6 5 6 4 4 4 5 5 5 -3 -3 -2 -1 0 -2 -2 -2 -2 -1 1 1 1 1 3 3 1 0 2 3 2 3 5 6
-2 -3 -2 -2 -3 -3 -3 -4 -4 -2 -3 -7 -12 -9 -1 5 5 4 4 5 5 5 -4 -8 -4 -2 -1 -1 -1 -2 -1 0 2 4 5 3 3 2 2 3 1 3 3 5 5 6 5
-5 -6 -5 -5 -5 -3 -3 -4 -4 -2 -2 -1 -3 4 5 6 4 5 5 4 5 0 -2 -8 -6 -6 -2 -4 -3 -1 -0 1 0 2 2 4 4 1 1 2 2 3 3 4 6 6 7
-3 -4 -4 -5 -7 -2 -2 -4 -3 -2 -0 1 3 4 5 5 6 5 5 5 4 1 -4 -3 -5 -4 -3 -4 -4 -3 -0 0 -1 0 3 4 2 -0 -1 0 1 4 5 1 5 3 5
-5 -5 -5 -4 -2 -1 -2 -3 -3 -1 1 1 2 3 4 4 4 4 4 4 2 -0 -2 0 3 1 -1 -3 -3 -1 3 -1 -1 -2 -0 2 5 0 0 0 0 2 1 5 6 6 6
-7 -5 -4 -5 -2 -1 -2 -3 -3 -1 1 1 2 2 2 3 3 2 4 4 2 0 -1 2 3 3 2 1 -0 3 4 3 1 1 -0 2 3 1 0 3 2 2 3 5 5 7 7
-6 -6 -7 -6 -6 -6 -4 -4 -3 -2 0 0 1 1 1 2 1 0 3 2 0 1 -0 1 0 1 1 -0 -0 0 3 3 -1 0 4 3 3 3 1 -1 -1 -2 1 2 6 6 6
-6 -6 -6 -6 -8 -7 -5 -6 -5 -2 0 1 1 -0 1 1 1 1 1 0 0 2 3 2 -2 -2 -3 -1 1 1 2 1 -2 0 5 4 5 4 1 1 0 -1 -2 3 3 4 4
-7 -7 -6 -5 -6 -6 -6 -5 -6 -5 -3 1 0 -0 -1 -0 -0 1 1 2 3 2 -0 -1 -3 -4 -1 -0 -0 0 4 -0 -2 -2 -4 -1 1 0 2 3 1 -1 -4 -3 0 2 1
-6 -6 -5 -6 -7 -6 -5 -6 -5 -5 -3 -0 -0 0 -2 -1 -0 1 1 1 1 2 -2 -4 -2 -1 0 1 0 -1 0 2 -2 -4 -4 -1 1 -1 -2 -1 -5 -7 -6 -6 -3 -4 -1
-6 -6 -6 -6 -6 -7 -8 -8 -7 -4 -1 -0 -1 0 1 -1 -2 -0 0 4 2 1 1 -3 0 -0 -1 0 -0 0 3 3 -0 -4 -1 -2 2 -2 -0 -4 -8 -8 -10 -11 -10 -10 -10
-5 -5 -5 -6 -7 -7 -9 -7 -5 -4 -1 -1 -1 0 1 0 1 0 -1 -0 1 0 -2 -4 -3 -1 0 -0 -1 -3 -0 -0 -3 -2 -1 -2 -0 -1 2 -3 -5 -7 -4 -4 -2 -1 -1
-5 -5 -5 -6 -6 -5 -6 -7 -4 -2 -1 -1 -1 -1 1 1 1 0 -1 -1 -0 -1 2 -1 -2 1 -1 -1 -4 -3 -1 -1 -3 -2 -3 -2 -2 -1 -0 -7 -3 -1 -3 -2 0 -1 -2
-10 -9 -8 -4 -5 -6 -6 -5 -3 -2 -1 -1 0 -0 1 1 -0 -1 0 -1 -2 -3 2 2 -0 -1 -2 -6 -3 -3 -5 -6 -5 -5 -4 -5 -2 -2 -1 -1 -1 -2 -1 -1 -1 -0 -3
-4 -5 -5 -5 -5 -5 -4 -4 -3 -2 -1 -1 -1 -1 0 0 -0 1 -0 -2 2 2 2 1 -1 -5 -6 -2 -2 1 0 -3 -3 -6 -8 -8 -5 -1 -0 0 -0 -0 -3 -3 -2 -1 -4
-4 -4 -4 -4 -4 -4 -3 -3 -3 -4 -1 -1 -1 -1 -0 -0 0 1 2 2 2 2 2 -2 -4 -5 -6 -1 -0 1 1 -5 -2 -1 -4 -3 -2 -1 0 0 1 -1 -4 -4 -1 -3 -4
-3 -2 -2 -2 -2 -3 -3 -3 -2 -0 -0 -1 -2 -1 -0 -0 -0 1 1 1 2 1 1 -3 -3 -4 -3 -1 1 1 3 0 1 -0 -3 -2 -0 0 -1 0 2 -3 -3 -1 -3 -4 -5
-4 -4 -4 -4 -3 -2 -2 -2 -1 -1 -1 -2 -2 -1 -0 -0 -0 -0 -0 0 1 0 -3 -4 -4 -4 -4 -2 -3 -3 1 0 1 2 -1 -1 -1 0 0 -0 -3 -4 -4 -4 -4 -5 -5

GFSGBSN_850_dewp_114.txt.gz
Dewpoint
7 7 7 7 6 5 5 3 1 -1 -3 -5 -7 -8 -10 -12 -13 -14 -14 -14 -13 -11 -10 -8 -3 -0 -0 3 -5 -12 -1 2 -3 -2 4 2 -0 -1 -2 -2 -1 -0 -1 -1 -1 -1 -2
2 3 3 2 1 0 -1 -3 -4 -5 -8 -12 -14 -16 -16 -16 -16 -16 -16 -16 -14 -12 -11 1 2 5 4 4 -11 -3 -0 0 3 4 4 1 1 0 0 -0 -0 -1 -0 -1 -2 -2 -3
3 2 2 -0 -2 -3 -4 -5 -9 -13 -16 -17 -18 -18 -18 -17 -17 -17 -17 -16 -14 -14 -10 3 5 5 5 -4 -11 -7 -5 3 3 4 2 -0 -0 -0 -0 -0 -0 -1 0 -1 -2 -3 -3
3 3 2 0 -4 -8 -11 -14 -16 -17 -18 -18 -18 -18 -18 -18 -18 -17 -17 -15 -11 -11 -7 5 5 5 4 -11 -4 -7 -5 -4 4 3 2 0 -1 -1 -2 -1 -1 -0 -0 2 -2 -3 -3
3 2 1 -4 -10 -14 -14 -16 -16 -18 -18 -19 -19 -19 -20 -20 -17 -16 -12 -10 -8 -8 -1 5 4 4 4 -2 -4 -6 -5 -4 -2 1 1 1 0 -2 -1 1 2 1 3 2 0 -3 -2
-1 -2 -3 -5 -11 -12 -15 -15 -15 -17 -18 -18 -19 -20 -22 -20 -12 -7 -8 0 1 2 4 5 5 4 -1 -4 -3 -1 -2 -1 1 2 1 1 -2 -0 1 2 4 2 2 0 1 -2 -1
-1 0 -1 -4 -5 -8 -12 -13 -15 -15 -16 -18 -20 -21 -22 -20 -10 -7 2 2 1 4 4 2 1 3 -2 -1 -0 0 -1 1 2 1 2 1 2 2 1 1 1 1 1 1 -0 -3 -1
1 2 2 1 -1 -2 -5 -8 -11 -14 -16 -18 -19 -21 -20 -15 -7 3 5 3 1 4 4 3 1 2 -3 -4 0 0 -1 1 1 2 1 2 4 1 -0 0 1 2 2 1 -2 -3 -2
2 2 1 2 1 0 -2 -4 -7 -10 -11 -13 -16 -18 -16 -7 -3 4 4 1 2 4 4 3 -1 3 2 -0 2 -0 -0 -0 -0 1 1 3 1 -1 0 0 1 0 1 -1 -1 1 -1
1 -0 1 1 1 1 -1 -1 -4 -6 -8 -10 -13 -15 -13 -2 3 4 4 3 3 5 2 1 3 1 2 3 3 -2 -1 -0 -0 1 1 1 -1 -0 -0 0 -0 1 1 2 3 3 4
-2 -2 -3 -1 0 -0 -1 -2 -2 -5 -7 -9 -12 -12 -10 -1 3 4 3 2 4 4 -9 -7 -1 -1 1 1 -1 0 -1 -0 0 1 0 2 0 0 1 0 0 2 2 3 3 4 4
1 1 0 -1 -2 -3 -3 -2 -2 -2 -5 -8 -8 -9 -7 -3 5 2 3 3 5 4 -0 -3 -2 2 3 1 0 -1 1 0 -1 1 1 1 0 0 1 1 0 2 2 2 3 4 4
0 0 -0 -1 -3 -2 -2 -1 -2 -4 -5 -5 -5 -7 -7 -5 3 3 3 4 5 4 -4 -4 -2 2 2 2 1 -1 -0 1 2 4 4 2 2 2 2 3 1 2 2 5 3 4 4
-0 -1 -1 -1 -2 -3 -3 -2 -4 -3 -5 -4 -3 -5 -3 -0 3 4 4 4 5 1 -1 -6 -4 -3 1 1 1 0 -0 1 -0 0 3 4 4 3 2 2 3 3 2 4 5 5 5
-1 -1 -2 -4 -6 -7 -5 -7 -3 -3 -4 -2 -1 0 4 5 4 4 4 5 2 0 -2 -3 -5 -4 -4 -2 -2 -0 0 0 -1 1 3 4 3 -1 1 1 1 3 3 1 5 4 3
-3 -3 -3 -4 -4 -4 -4 -6 -2 -3 -4 -1 1 1 2 3 4 4 4 4 2 -1 -2 -1 3 1 0 -4 -2 -2 1 0 -1 -0 -1 2 3 1 0 0 1 2 1 5 5 5 6
-3 -3 -5 -5 -6 -6 -2 -1 -1 -3 -2 1 1 1 2 4 3 3 3 3 1 -1 -1 1 1 3 1 0 -1 3 2 2 1 1 -0 2 3 3 2 3 3 3 4 4 4 5 6
-2 -4 -7 -8 -5 -4 -3 -1 -1 -2 -2 0 1 1 1 2 2 0 3 2 -0 1 0 1 2 2 2 1 0 0 4 2 -1 -1 3 4 4 5 2 1 -0 1 2 4 4 4 5
-5 -6 -7 -7 -6 -6 -5 -3 -3 -3 -1 1 0 0 0 1 2 1 1 2 1 2 1 1 2 1 -0 0 2 1 1 1 -1 1 4 4 5 6 5 2 -0 1 -0 1 2 5 5
-5 -7 -8 -6 -6 -6 -8 -5 -4 -4 -2 -0 -0 -1 -1 -0 0 1 1 2 2 1 2 2 1 0 -2 -0 -0 1 3 1 -1 0 3 4 5 5 4 2 1 0 -1 1 3 4 2
-6 -7 -8 -8 -7 -7 -7 -7 -5 -5 -4 -1 -1 -0 -1 -0 -1 0 -0 -1 0 3 2 2 3 0 -0 1 0 1 3 1 -2 -1 -1 2 3 2 0 0 -0 -1 -8 -4 1 -0 1
-5 -7 -6 -6 -5 -6 -7 -6 -6 -5 -3 -1 -1 -0 -1 -1 -2 -0 1 3 1 0 0 3 3 2 -0 0 -0 0 2 3 0 -4 -0 -0 3 3 3 -0 -4 -8 -9 -10 -11 -4 2
-6 -7 -7 -6 -6 -6 -6 -8 -8 -6 -3 -1 -1 -3 1 -0 -1 -0 -1 -1 0 0 -0 -1 -0 0 1 -0 -1 -3 -0 1 0 -2 -1 1 2 3 4 2 1 -0 -6 -2 -1 -1 -0
-5 -5 -4 -5 -6 -7 -8 -10 -11 -8 -4 -2 -1 -0 0 1 1 -1 -2 -2 -1 -1 1 -0 -0 -0 -1 -2 -1 -1 -1 -1 -3 -2 -3 -1 1 1 2 1 4 -1 -1 -1 -1 -1 -1
-6 -6 -6 -5 -4 -6 -7 -7 -9 -9 -4 -2 -1 -1 -0 -1 0 1 1 1 -2 -2 -1 2 0 -0 -1 -1 0 1 1 0 0 -2 -2 -2 1 2 1 0 -0 -1 -1 -0 -1 -1 -3
-9 -11 -9 -8 -8 -5 -5 -7 -7 -7 -3 -1 -1 -0 0 0 -1 -1 0 0 1 -1 1 2 2 1 -4 -2 -0 2 0 -2 -1 -2 -3 -2 -3 -0 0 -1 1 -1 -2 -3 -4 -2 -4
-4 -4 -7 -11 -5 -9 -9 -6 -6 -5 -2 -1 -1 -1 -0 -0 -0 -0 1 0 1 1 0 1 2 0 -3 -1 -1 0 1 -4 -2 -1 -2 -3 -2 -3 0 0 1 -2 -2 -3 -3 -3 -4
-3 -5 -4 -5 -6 -7 -7 -6 -5 -4 -2 -1 -1 -1 -1 -0 -1 -1 -0 1 2 0 -0 0 0 -1 -3 -2 0 -0 0 0 -1 -2 -3 -3 -1 0 -0 0 1 -3 -3 -1 -4 -4 -4
-3 -3 -2 -2 -4 -4 -4 -5 -2 -3 -2 -2 -1 -1 -1 -1 -0 -1 -1 0 2 -0 -2 -2 -3 -3 -4 -2 -2 -1 2 2 0 2 -0 -2 -3 -1 -1 -2 -3 -3 -3 -3 -5 -5 -5

GFSGBSN_850_dewp_117.txt.gz
Dewpoint
9 9 9 9 8 8 8 7 7 6 4 2 -0 -3 -6 -8 -10 -13 -14 -15 -15 -14 -14 -13 -13 -11 -8 0 -14 -9 -2 -0 3 4 -2 3 0 -1 -1 -1 -1 -0 -1 -0 -1 -1 -1
7 7 7 7 6 6 6 5 3 2 -0 -3 -6 -9 -11 -14 -15 -16 -16 -16 -16 -16 -14 -11 -10 -5 -3 3 -13 -7 -9 -8 -4 -5 3 3 0 0 -0 0 0 -0 -0 -1 -1 -1 -1
5 3 3 4 3 2 0 -1 -2 -3 -5 -9 -13 -16 -17 -17 -17 -17 -17 -17 -16 -16 -13 -9 1 4 1 -11 -13 -10 -5 -4 1 3 4 1 -1 -0 -0 -1 -0 -1 0 -1 -1 -2 -2
4 4 4 3 3 2 -1 -3 -5 -9 -13 -16 -17 -18 -18 -18 -18 -17 -17 -17 -16 -14 -11 1 5 4 0 -15 -14 -13 -10 -10 -5 3 3 0 -0 1 -1 -1 -1 -0 -0 2 -2 -3 -3
3 3 3 3 3 3 -3 -6 -10 -14 -16 -17 -18 -18 -18 -19 -19 -18 -14 -15 -13 -10 3 4 4 4 2 -6 -8 -5 -6 -6 -6 -2 4 2 2 1 -1 0 2 1 3 2 -0 -3 -3
2 3 3 3 3 1 -3 -5 -11 -12 -16 -17 -18 -18 -19 -19 -19 -16 -10 -10 -1 2 3 4 4 3 -3 -9 -2 -3 -2 -3 -0 -1 2 2 1 0 0 1 3 2 3 1 1 -3 -2
2 2 1 2 2 2 -4 -1 -7 -11 -15 -16 -17 -18 -19 -19 -17 -14 -8 1 0 2 3 1 2 1 -3 -1 -0 -2 -0 1 2 2 3 0 1 2 1 1 1 1 1 2 -0 -2 -1
1 1 -0 1 1 -0 -2 -7 -9 -12 -12 -13 -16 -18 -20 -19 -12 -6 3 2 1 4 4 1 -1 2 -5 -0 -1 -1 1 2 2 3 2 2 4 1 -0 -0 1 2 3 3 1 -1 -2
0 1 1 1 1 1 -0 -2 -5 -7 -9 -10 -13 -15 -16 -14 -5 -2 2 -1 5 4 4 3 1 3 2 -1 1 -3 0 1 1 2 3 4 2 1 1 2 2 2 3 2 2 1 0
2 2 2 2 1 1 1 0 -2 -4 -6 -8 -9 -10 -10 -7 -1 2 3 -1 4 4 1 -0 3 2 1 2 3 -5 -1 0 -0 2 1 2 0 0 1 2 1 3 -1 1 2 2 3
1 2 1 1 1 2 2 1 -0 -2 -4 -5 -7 -7 -6 -6 1 1 2 2 4 4 -10 -5 2 1 2 3 -1 2 -1 -0 1 1 0 2 0 1 2 1 -1 1 1 2 2 3 3
-0 -1 -0 -0 -1 -1 -0 0 -1 -2 -2 -3 -6 -7 -3 -3 3 -2 2 3 4 -2 -11 -6 2 3 4 3 1 2 1 -0 -0 0 0 -0 -0 -1 -0 -0 -0 2 2 2 3 3 3
0 0 -0 -1 0 -1 -1 -2 -2 -3 -2 -2 -4 -6 -3 -2 -2 1 4 4 4 -1 -7 -5 1 3 3 3 1 -0 2 2 3 4 4 2 2 1 1 3 2 1 3 7 5 4 4
0 -0 -0 1 1 0 -1 -2 -2 -2 -2 -3 -5 -4 -3 -4 -3 0 5 4 4 -0 -1 -5 -2 2 3 1 1 1 2 3 0 0 3 4 3 3 2 2 4 2 3 5 5 4 4
-1 -1 -2 0 0 -0 -1 -2 -3 -3 -3 -3 -3 -2 -1 2 1 2 4 4 1 -0 -2 -3 -7 -5 -1 0 -0 1 1 2 1 0 1 4 3 -0 2 1 1 3 3 1 4 4 4
-0 -0 -0 -0 -1 -2 -3 -5 -6 -5 -4 -3 -2 0 1 3 2 4 4 2 1 -2 -2 -1 -1 -2 -2 -4 1 1 1 -0 -0 -0 -1 1 3 1 1 1 1 1 1 4 4 5 5
-1 -0 -0 -1 -1 -2 -3 -5 -4 -4 -4 -2 0 1 1 3 3 4 3 2 -1 -2 -2 -1 0 1 2 1 -2 -0 -0 0 -0 0 -1 1 2 2 2 3 4 3 4 3 3 3 4
-1 -1 -1 -2 -3 -3 -4 -5 -3 -3 -2 -1 1 2 -0 2 2 1 3 1 -0 -0 -2 -0 1 2 2 1 1 0 2 2 -0 1 3 3 4 5 3 0 1 1 2 4 2 4 4
-1 -2 -2 -2 -3 -5 -7 -6 -3 -1 -0 0 0 0 0 2 2 1 0 1 0 -0 -0 1 0 1 1 2 3 1 0 1 -0 2 4 4 5 5 5 3 2 5 2 2 3 3 5
-2 -3 -3 -2 -5 -7 -8 -4 -2 -1 -1 -0 -0 -0 -1 1 0 0 1 2 2 1 1 2 1 0 1 1 1 1 2 2 -0 1 4 3 4 4 3 3 2 5 3 2 3 5 4
-2 -2 -3 -6 -8 -7 -7 -7 -4 -3 -1 0 -0 -1 -1 -1 -0 1 0 0 1 3 1 1 1 2 2 2 1 2 2 1 -2 3 3 2 4 4 4 3 4 4 4 3 2 2 3
-3 -3 -4 -6 -8 -7 -6 -6 -8 -4 -2 -0 -2 -1 -1 -1 -2 0 0 0 1 -0 -0 4 3 2 3 2 2 -0 2 1 0 -0 0 0 2 2 3 2 1 2 -3 -9 -2 0 1
-3 -3 -5 -6 -6 -6 -6 -6 -7 -7 -2 -1 -1 -1 -0 -1 -2 -0 -1 -1 -1 -1 -2 -2 0 2 2 2 1 0 -2 -0 1 -1 0 1 2 3 3 3 5 5 -1 -6 -1 -1 1
-4 -4 -5 -7 -7 -5 -5 -5 -7 -6 -4 -2 -2 -3 -1 -1 -0 -1 -2 -2 -1 -2 0 -1 -1 -0 -0 -0 1 1 -0 -2 -0 -2 -1 1 2 3 3 3 4 0 -1 -1 -0 -1 -0
-5 -5 -6 -6 -6 -6 -5 -6 -7 -8 -5 -4 -3 -1 -1 -0 -3 -0 -1 -2 -2 -3 -2 -2 -2 -0 0 0 2 2 2 2 1 -1 -1 -1 1 2 2 3 1 -1 -1 -1 -1 -0 -2
-8 -7 -6 -5 -4 -5 -6 -6 -7 -9 -9 -4 -4 -3 -1 -0 -1 0 0 -0 0 1 -1 -2 -1 1 1 1 2 2 2 1 2 1 -2 -1 -0 1 2 1 2 -3 -2 -3 -5 -3 -4
-6 -10 -8 -8 -7 -6 -5 -6 -8 -8 -8 -5 -4 -3 -1 -1 -1 -0 -0 -0 -0 -0 0 0 2 2 1 1 1 1 0 -3 1 1 2 2 1 1 0 0 -1 -2 -3 -4 -5 -4 -4
-5 -3 -5 -7 -11 -9 -8 -7 -6 -7 -7 -5 -4 -2 -1 -1 -1 -1 -1 -0 1 0 -0 -0 1 0 -0 1 1 1 -1 -2 -2 -4 -2 -1 1 0 -1 -0 -1 -3 -3 -2 -4 -4 -5
-3 -3 -6 -3 -5 -13 -12 -9 -7 -7 -6 -4 -2 -2 -2 -1 -1 -1 -1 -1 -0 1 -1 0 -1 -1 -1 0 -1 0 1 -1 -1 0 -2 -3 -3 -2 -1 -2 -3 -3 -3 -4 -5 -5 -6